Weather History for Buffalo, WY

Change the Weather History Date:

Tuesday, January 15, 2013

  Actual Average Record
Temperature  
Mean Temperature 27 °F 28 °F  
Max Temperature 40 °F 39 °F 53 °F (2010)
Min Temperature 14 °F 17 °F -3 °F (2005)
Degree Days  
Heating Degree Days 38 37  
Month to date heating degree days 588 561  
Since 1 July heating degree days 3313 3608  
Cooling Degree Days 0 0  
Month to date cooling degree days 0 0  
Year to date cooling degree days 0 0  
Moisture  
Dew Point 20 °F    
Average Humidity 68    
Maximum Humidity 92    
Minimum Humidity 43    
Precipitation  
Precipitation 0.09 in 0.02 in 0.09 in (2013)
Month to date precipitation 0.09 0.17  
Year to date precipitation 0.09 0.17  
Sea Level Pressure  
Sea Level Pressure 30.04 in    
Wind  
Wind Speed 5 mph (South)    
Max Wind Speed 25 mph    
Max Gust Speed 38 mph    
Visibility 5 miles    
Events Snow    
T = Trace of Precipitation, MM = Missing Value Source: NWS Daily Summary

Daily Weather History Graph

Daily Weather History Graph

Search for Another Location

Airport:

Trip Planner

Search our weather history database for the weather conditions in past years. The results will help you decide how hot, cold, wet, or windy it might be!

Date:

Astronomy

Jan. 15, 2013 Rise Set
Actual Time 7:39 AM MST 4:53 PM MST
Civil Twilight 7:07 AM MST 5:26 PM MST
Nautical Twilight 6:31 AM MST 6:02 PM MST
Astronomical Twilight 5:56 AM MST 6:36 PM MST
Moon 9:34 AM MST (1/15) 10:00 PM MST (1/15)
Length of Visible Light 10h 19m
Length of Day
9h 14m
Waxing Crescent, 20% of the Moon is Illuminated
Jan 15
Waxing Crescent
Jan 18
First Quarter
Jan 26
Full
Feb 3
Last Quarter
Feb 10
New

Hourly Weather History & Observations

Time (MST) Temp. Windchill Dew Point Humidity Pressure Visibility Wind Dir Wind Speed Gust Speed Precip Events Conditions
12:53 AM 16.0 °F 10.4 °F -0.0 °F 49% 30.11 in 10.0 mi South 3.5 mph - N/A   Overcast
1:53 AM 17.1 °F - 3.0 °F 54% 30.11 in 10.0 mi Calm Calm - N/A   Overcast
2:53 AM 18.0 °F 12.7 °F 3.0 °F 52% 30.11 in 10.0 mi SSE 3.5 mph - N/A   Overcast
3:53 AM 17.1 °F - 6.1 °F 62% 30.11 in 10.0 mi Calm Calm - N/A   Overcast
4:53 AM 18.0 °F 8.7 °F 10.0 °F 71% 30.10 in 4.0 mi South 6.9 mph - 0.00 in Snow Light Snow
5:01 AM 19.4 °F 10.4 °F 12.2 °F 74% 29.92 in 2.0 mi South 6.9 mph - 0.00 in Snow Light Snow
5:10 AM 19.4 °F 10.4 °F 12.2 °F 74% 29.92 in 1.5 mi South 6.9 mph - 0.00 in Snow Light Snow
5:21 AM 19.4 °F 9.5 °F 14.0 °F 80% 29.91 in 3.0 mi SSE 8.1 mph - 0.00 in Snow Light Snow
5:32 AM 19.4 °F 10.4 °F 15.8 °F 86% 29.92 in 1.8 mi SSE 6.9 mph - 0.00 in Snow Light Snow
5:53 AM 19.0 °F 13.9 °F 16.0 °F 88% 30.13 in 1.5 mi South 3.5 mph - 0.01 in Snow Light Snow
6:11 AM 19.4 °F 14.3 °F 15.8 °F 86% 29.94 in 2.0 mi SSW 3.5 mph - 0.00 in Snow Light Snow
6:19 AM 19.4 °F 14.3 °F 15.8 °F 86% 29.94 in 1.8 mi WSW 3.5 mph - 0.00 in Snow Light Snow
6:53 AM 21.9 °F 15.7 °F 18.0 °F 85% 30.12 in 2.0 mi South 4.6 mph - 0.01 in Snow Light Snow
7:02 AM 21.2 °F 14.9 °F 17.6 °F 86% 29.95 in 1.8 mi SSW 4.6 mph - 0.00 in Snow Light Snow
7:34 AM 21.2 °F 13.6 °F 17.6 °F 86% 29.95 in 2.0 mi South 5.8 mph - 0.01 in Snow Light Snow
7:53 AM 23.0 °F 17.0 °F 19.0 °F 85% 30.12 in 1.5 mi South 4.6 mph - 0.02 in Snow Light Snow
8:20 AM 24.8 °F 20.5 °F 19.4 °F 80% 29.96 in 2.5 mi South 3.5 mph - 0.00 in Snow Light Snow
8:32 AM 24.8 °F 19.1 °F 21.2 °F 86% 29.96 in 1.8 mi South 4.6 mph - 0.00 in Snow Light Snow
8:53 AM 25.0 °F 20.7 °F 19.9 °F 81% 30.12 in 1.2 mi South 3.5 mph - 0.00 in Snow Light Snow
9:00 AM 24.8 °F 19.1 °F 21.2 °F 86% 29.97 in 0.8 mi South 4.6 mph - 0.01 in Snow Light Snow
9:12 AM 24.8 °F 19.1 °F 21.2 °F 86% 29.97 in 1.0 mi South 4.6 mph - 0.01 in Snow Light Snow
9:40 AM 26.6 °F - 21.2 °F 80% 29.97 in 1.5 mi Calm Calm - 0.01 in Snow Light Snow
9:53 AM 26.1 °F - 23.0 °F 88% 30.12 in 1.2 mi Calm Calm - 0.01 in Snow Light Snow
10:09 AM 26.6 °F 22.6 °F 24.8 °F 93% 29.97 in 1.2 mi SW 3.5 mph - 0.01 in Snow Light Snow
10:42 AM 28.4 °F 21.2 °F 24.8 °F 86% 29.97 in 2.0 mi South 6.9 mph - 0.01 in Snow Light Snow
10:53 AM 28.0 °F 19.3 °F 25.0 °F 88% 30.10 in 6.0 mi South 9.2 mph - 0.01 in Snow Light Snow
11:53 AM 32.0 °F - 23.0 °F 69% 30.07 in 10.0 mi Calm Calm - 0.00 in   Overcast
12:53 PM 34.0 °F - 26.1 °F 73% 30.05 in 10.0 mi Calm Calm - N/A   Overcast
1:53 PM 34.0 °F 29.8 °F 27.0 °F 75% 30.06 in 10.0 mi NE 4.6 mph - 0.00 in Snow Light Snow
2:32 PM 33.8 °F 30.8 °F 26.6 °F 75% 29.98 in 5.0 mi NNW 3.5 mph - 0.00 in Snow Light Snow
2:53 PM 34.0 °F 28.8 °F 27.0 °F 75% 30.09 in 10.0 mi North 5.8 mph - 0.00 in   Overcast
3:44 PM 32.0 °F 27.5 °F 26.6 °F 80% 30.00 in 1.8 mi SW 4.6 mph - 0.01 in Snow Light Snow
3:53 PM 32.0 °F - 27.0 °F 82% 30.11 in 1.5 mi Calm Calm - 0.01 in Snow Light Snow
4:16 PM 32.0 °F 28.7 °F 26.6 °F 80% 30.00 in 1.2 mi ENE 3.5 mph - 0.01 in Snow Light Snow
4:33 PM 30.2 °F - 28.4 °F 93% 30.00 in 3.0 mi Calm Calm - 0.01 in Snow Light Snow
4:53 PM 30.0 °F 25.2 °F 28.0 °F 92% 30.12 in 5.0 mi SSE 4.6 mph - 0.01 in Snow Light Snow
5:53 PM 32.0 °F 24.2 °F 27.0 °F 82% 30.12 in 10.0 mi NW 9.2 mph - 0.00 in   Overcast
6:53 PM 37.0 °F 28.5 °F 28.0 °F 70% 30.10 in 10.0 mi NNW 13.8 mph 19.6 mph N/A   Overcast
7:53 PM 37.9 °F 27.3 °F 28.0 °F 68% 30.08 in 10.0 mi NNW 21.9 mph 31.1 mph 0.01 in   Mostly Cloudy
8:53 PM 35.1 °F 27.9 °F 26.1 °F 70% 30.09 in 10.0 mi NNW 9.2 mph 19.6 mph N/A   Clear
9:53 PM 37.0 °F 28.9 °F 24.1 °F 59% 30.09 in 10.0 mi NW 12.7 mph - N/A   Partly Cloudy
10:53 PM 32.0 °F - 24.1 °F 73% 30.12 in 10.0 mi Calm Calm - N/A   Overcast
11:53 PM 33.1 °F - 23.0 °F 66% 30.09 in 10.0 mi Calm Calm - N/A   Overcast